This demonstration page uses our WeatherBlox Daily Observations layout. Learn more.

Left ArrowRight Arrow

39.08367, -84.50855

Hourly Observations for December 8, 2016

Temp ( °F °C ) Dew Point ( °F °C ) Humidity (%) Winds ( mph kmh ) Pressure ( in mb ) Visibility ( mi km ) Precip ( " mm )
12:53 am 00:53 Mostly Cloudy 34 1.1 23 -5 64 64 WNW 9 15 30.20 1023 10 16 0.00 0.00
1:53 am 01:53 Mostly Cloudy 32 0 22 -5.6 66 66 VRB 5 7 30.21 1023 10 16 0.00 0.00
2:53 am 02:53 Mostly Cloudy 31 -0.6 22 -5.6 69 69 W 10 17 30.22 1023 10 16 0.00 0.00
3:53 am 03:53 Cloudy 31 -0.6 22 -5.6 69 69 W 13 20 30.22 1023 10 16 0.00 0.00
4:53 am 04:53 Cloudy 31 -0.6 20 -6.7 64 64 WNW 14 22 30.23 1024 10 16 0.00 0.00
5:53 am 05:53 Mostly Cloudy 29 -1.7 20 -6.7 69 69 W 12 19 30.25 1024 10 16 0.00 0.00
6:53 am 06:53 Mostly Clear 28 -2.2 20 -6.7 72 72 W 14 22 30.26 1025 10 16 0.00 0.00
7:13 am 07:13 Mostly Cloudy 28 -2.2 20 -6.7 72 72 W 9 15 30.30 1026 10 16 0.00 0.00
7:53 am 07:53 Mostly Cloudy 28 -2.2 18 -7.8 66 66 WSW 17 28 30.28 1025 10 16 0.00 0.00
8:13 am 08:13 Partly Cloudy 27 -2.8 17 -8.3 66 66 W 18 30 30.30 1026 10 16 0.00 0.00
8:53 am 08:53 Mostly Sunny 27 -2.8 16 -8.9 63 63 W 16 26 30.30 1026 10 16 0.00 0.00
9:53 am 09:53 Partly Cloudy 28 -2.2 16 -8.9 60 60 W 18 30 30.32 1027 10 16 0.00 0.00
10:53 am 10:53 Sunny 30 -1.1 15 -9.4 54 54 W 17 28 30.34 1027 10 16 0.00 0.00
11:53 am 11:53 Sunny 32 0 15 -9.4 50 50 W 17 28 30.33 1027 10 16 0.00 0.00
12:53 pm 12:53 Sunny 33 0.6 17 -8.3 52 52 W 15 24 30.32 1027 10 16 0.00 0.00
1:53 pm 13:53 Mostly Sunny 33 0.6 17 -8.3 52 52 NW 12 19 30.32 1027 10 16 0.00 0.00
2:53 pm 14:53 Partly Cloudy 32 0 18 -7.8 56 56 NW 13 20 30.33 1027 10 16 0.00 0.00
3:53 pm 15:53 Partly Cloudy 31 -0.6 17 -8.3 56 56 W 13 20 30.36 1028 10 16 0.00 0.00
4:53 pm 16:53 Mostly Cloudy 28 -2.2 15 -9.4 58 58 NW 9 15 30.39 1029 10 16 0.00 0.00
5:53 pm 17:53 Mostly Cloudy 26 -3.3 14 -10 60 60 NW 12 19 30.43 1030 10 16 0.00 0.00
6:53 pm 18:53 Cloudy with Light Snow 26 -3.3 16 -8.9 66 66 W 15 24 30.44 1031 7 11 0.00 0.03
7:53 pm 19:53 Cloudy 26 -3.3 14 -10 60 60 W 13 20 30.45 1031 10 16 0.00 0.03
8:53 pm 20:53 Cloudy 25 -3.9 14 -10 63 63 W 14 22 30.47 1032 10 16 0.00 0.00
9:53 pm 21:53 Cloudy 25 -3.9 15 -9.4 66 66 W 9 15 30.47 1032 10 16 0.00 0.00
10:53 pm 22:53 Cloudy 25 -3.9 16 -8.9 69 69 WNW 9 15 30.48 1032 9 14 0.00 0.03
11:53 pm 23:53 Cloudy with Light Snow 24 -4.4 17 -8.3 75 75 NW 7 11 30.50 1033 6 10 0.00 0.03

Powered by AerisWeather